Location: Unspecified
(38.0989°N, 0.6729°W)
Time: 03:22:39
(UTC+01:00)

ISS - Pass Details

Date: 29 November 2017
Orbit: 402 x 407 km, 51.6° (Epoch: 10 December)

Event Time Altitude Azimuth Distance (km) Brightness Sun altitude
Rises 18:53:27 0° 242° (WSW) 2,318 1.8 -13.6°
Reaches altitude 10° 18:55:34 10° 249° (WSW) 1,461 0.4 -14.0°
Maximum altitude 18:58:45 47° 324° (NW) 544 -3.1 -14.6°
Enters shadow 19:00:28 23° 29° (NNE) 913 -2.5 -14.9°
